This demonstration page uses our WeatherBlox Daily Observations layout. Learn more.

Left ArrowRight Arrow

Hourly Observations for December 10, 2020

Temp ( °F °C ) Dew Point ( °F °C ) Humidity (%) Winds ( mph kmh ) Pressure ( in mb ) Visibility ( mi km ) Precip ( " mm )
12:54 am 00:54 Clear 27 -2.8 21 -6.1 78 78 NNE 3 6 29.93 1014 10 16.0934 0 0
1:54 am 01:54 Clear 27 -2.8 21 -6.1 78 78 N 6 9 29.93 1014 10 16.0934 0 0
2:54 am 02:54 Clear 29 -1.7 22 -5.6 75 75 NNW 5 7 29.92 1013 10 16.0934 0 0
3:54 am 03:54 Clear 26 -3.3 21 -6.1 81 81 N 3 6 29.91 1013 10 16.0934 0 0
4:54 am 04:54 Clear 29 -1.7 22 -5.6 75 75 Calm 29.9 1012 10 16.0934 0 0
5:54 am 05:54 Clear 27 -2.8 21 -6.1 78 78 NNW 3 6 29.91 1013 10 16.0934 0 0
6:54 am 06:54 Clear 23 -5 18 -7.8 81 81 Calm 29.92 1013 10 16.0934 0 0
7:54 am 07:54 Sunny 24 -4.4 20 -6.7 84 84 N 5 7 29.92 1013 10 16.0934 0 0
8:54 am 08:54 Sunny 32 0 25 -3.9 75 75 N 3 6 29.94 1014 10 16.0934 0 0
9:54 am 09:54 Sunny 39 3.9 29 -1.7 67 67 NNW 5 7 29.95 1014 10 16.0934 0 0
10:54 am 10:54 Sunny 49 9.4 30 -1.1 48 48 N 17 28 29.94 1014 10 16.0934 0 0
11:54 am 11:54 Sunny 49 9.4 31 -0.6 50 50 N 20 31 29.93 1014 10 16.0934 0 0
12:54 pm 12:54 Sunny 51 10.6 32 0 48 48 undefined N/A 29.94 1014 10 16.0934 0 0
1:54 pm 13:54 Sunny 53 11.7 32 0 45 45 undefined N/A 29.92 1013 10 16.0934 0 0
2:54 pm 14:54 Sunny 51 10.6 31 -0.6 46 46 N 16 26 29.93 1014 10 16.0934 0 0
3:54 pm 15:54 Sunny 48 8.9 30 -1.1 50 50 NNE 18 30 29.93 1014 10 16.0934 0 0
4:54 pm 16:54 Sunny 44 6.7 29 -1.7 55 55 N 14 22 29.97 1015 10 16.0934 0 0
5:54 pm 17:54 Clear 42 5.6 29 -1.7 60 60 N 14 22 29.97 1015 10 16.0934 0 0
6:54 pm 18:54 Clear 38 3.3 28 -2.2 68 68 N 9 15 29.99 1016 10 16.0934 0 0
7:54 pm 19:54 Clear 38 3.3 28 -2.2 68 68 N 8 13 30 1016 10 16.0934 0 0
8:54 pm 20:54 Clear 39 3.9 29 -1.7 67 67 N 15 24 29.98 1015 10 16.0934 0 0
9:54 pm 21:54 Clear 40 4.4 30 -1.1 68 68 N 14 22 29.99 1016 10 16.0934 0 0
10:54 pm 22:54 Mostly Clear 39 3.9 31 -0.6 73 73 NNE 14 22 29.98 1015 10 16.0934 0 0
11:54 pm 23:54 Clear 38 3.3 31 -0.6 76 76 NNE 13 20 29.99 1016 10 16.0934 0 0

Powered by AerisWeather